Content
SEND FEEDBACK

Daily
Averages
Monthly
Summary
United States of America

CALLAHAN, CALIFORNIA


Home > North America > United States > California
Elevation: 3554 feet     Latitude: 41 18N     Longitude: 122 48W

WEATHER
 
SELECT A DAY
Number of Records: 58,580;   Date Range: 3/2/12 - 9/21/14
 
SHARE

PRINT THIS DATA

[ ← Previous Day ]
WEATHER ALMANAC - FEBRUARY 13, 2013
[ Next Day → ]
[ °C ]   °F
Weather ElementAverageHighLow
Temperature39.5 °F59 °F (3:15 pm)26.6 °F (5:55 am)
Dewpoint30.8 °F39.2 °F (4:35 pm)26.6 °F (12:35 am)
Humidity74 %100 % (5:55 am)39 % (3:15 pm)
Barometer30.40 in30.46 in (7:15 am)30.31 in (3:55 pm)
Wind Speed1.7 mph5.8 mph (6:55 pm)
Weather ElementAverage
Visibility9.7 mi
Wind DirectionESE (108 °)

Weather ElementTotal
Precipitation---
Heating Degree Days22.2 (Base 65)
Averaged from 71 records on February 13, 2013
WEATHER CONDITIONS BREAKOUT
WIND DIRECTION BREAKOUT
WEATHER BY HOUR - FEBRUARY 13, 2013
[ °C ]   °F
Local TimeTemperatureDewpointHumidityBarometerVisibilityWind DirectionWind SpeedGust SpeedPrecipitationEventsConditions
12:35 AM30.2 °F26.6 °F86 %30.44 in5.0 miWest (270°)4.6 mphClear
12:55 AM30.2 °F26.6 °F86 %30.44 in8.0 miWest (280°)3.5 mphClear
1:15 AM30.2 °F26.6 °F86 %30.44 in8.0 miWest (270°)3.5 mphClear
1:35 AM30.2 °F26.6 °F86 %30.44 in10.0 miWest (280°)3.5 mphClear
1:55 AM30.2 °F26.6 °F86 %30.44 in10.0 miWest (280°)3.5 mphClear
2:15 AM28.4 °F26.6 °F93 %30.44 in10.0 miCalmClear
2:35 AM28.4 °F26.6 °F93 %30.44 in10.0 miWest (280°)3.5 mphClear
2:55 AM28.4 °F26.6 °F93 %30.44 in10.0 miCalmClear
3:15 AM28.4 °F26.6 °F93 %30.44 in10.0 miWest (280°)3.5 mphClear
3:35 AM28.4 °F26.6 °F93 %30.44 in10.0 miCalmClear
3:55 AM28.4 °F26.6 °F93 %30.44 in10.0 miWest (270°)3.5 mphClear
4:15 AM28.4 °F26.6 °F93 %30.44 in10.0 miCalmClear
4:35 AM28.4 °F26.6 °F93 %30.44 in10.0 miWest (280°)4.6 mphClear
4:55 AM28.4 °F26.6 °F93 %30.44 in10.0 miCalmClear
5:15 AM28.4 °F26.6 °F93 %30.44 in10.0 miWNW (290°)3.5 mphClear
5:35 AM28.4 °F26.6 °F93 %30.45 in9.0 miWest (270°)3.5 mphClear
5:55 AM26.6 °F26.6 °F100 %30.44 in9.0 miWest (260°)3.5 mphClear
6:15 AM28.4 °F26.6 °F93 %30.44 in9.0 miCalmClear
6:35 AM28.4 °F26.6 °F93 %30.45 in10.0 miCalmMostly Cloudy
6:55 AM28.4 °F26.6 °F93 %30.45 in10.0 miWest (280°)3.5 mphMostly Cloudy
7:15 AM26.6 °F26.6 °F100 %30.46 in10.0 miWest (270°)3.5 mphMostly Cloudy
7:35 AM28.4 °F26.6 °F93 %30.46 in10.0 miCalmOvercast
7:55 AM28.4 °F26.6 °F93 %30.45 in5.0 miCalmMostly Cloudy
8:15 AM32.0 °F28.4 °F87 %30.45 in10.0 miCalmPartly Cloudy
8:35 AM32.0 °F30.2 °F93 %30.45 in10.0 miCalmClear
8:55 AM33.8 °F30.2 °F87 %30.45 in10.0 miCalmClear
9:15 AM35.6 °F32.0 °F87 %30.45 in10.0 miSSE (150°)3.5 mphClear
9:35 AM35.6 °F32.0 °F87 %30.45 in10.0 miSE (140°)3.5 mphClear
9:55 AM37.4 °F32.0 °F81 %30.45 in10.0 miCalmClear
10:15 AM37.4 °F32.0 °F81 %30.45 in10.0 miCalmClear
10:35 AM39.2 °F32.0 °F75 %30.44 in10.0 miENE (70°)3.5 mphClear
10:55 AM41.0 °F32.0 °F70 %30.44 in10.0 miCalmClear
11:15 AM41.0 °F32.0 °F70 %30.43 in10.0 miCalmClear
11:35 AM44.6 °F33.8 °F66 %30.42 in10.0 miCalmClear
11:55 AM44.6 °F33.8 °F66 %30.41 in10.0 miCalmClear
12:15 PM48.2 °F33.8 °F58 %30.40 in10.0 miENE (70°)3.5 mphClear
12:35 PM50.0 °F32.0 °F50 %30.39 in10.0 miCalmClear
12:55 PM51.8 °F32.0 °F47 %30.37 in10.0 miCalmClear
1:15 PM51.8 °F32.0 °F47 %30.37 in10.0 miCalmClear
1:35 PM55.4 °F33.8 °F44 %30.35 in10.0 miCalmClear
1:55 PM55.4 °F32.0 °F41 %30.34 in10.0 miCalmClear
2:15 PM55.4 °F32.0 °F41 %30.33 in10.0 miENE (60°)3.5 mphClear
2:35 PM57.2 °F33.8 °F41 %30.33 in10.0 miCalmClear
2:55 PM57.2 °F33.8 °F41 %30.33 in10.0 miCalmClear
3:15 PM59.0 °F33.8 °F39 %30.32 in10.0 miCalmClear
3:35 PM59.0 °F33.8 °F39 %30.32 in10.0 miCalmClear
3:55 PM59.0 °F35.6 °F42 %30.31 in10.0 miCalmClear
4:15 PM57.2 °F35.6 °F44 %30.32 in10.0 miCalmClear
4:35 PM55.4 °F39.2 °F54 %30.31 in10.0 miCalmClear
4:55 PM51.8 °F39.2 °F62 %30.31 in10.0 miCalmClear
5:15 PM50.0 °F39.2 °F66 %30.32 in10.0 miCalmClear
5:35 PM46.4 °F35.6 °F66 %30.32 in10.0 miCalmClear
5:55 PM46.4 °F33.8 °F62 %30.32 in10.0 miSSW (200°)4.6 mphClear
6:15 PM46.4 °F32.0 °F57 %30.33 in10.0 miNW (320°)3.5 mphClear
6:35 PM46.4 °F32.0 °F57 %30.34 in10.0 miNNW (330°)3.5 mphClear
6:55 PM42.8 °F32.0 °F66 %30.34 in10.0 miWNW (290°)5.8 mphClear
7:15 PM41.0 °F32.0 °F70 %30.35 in10.0 miCalmClear
7:35 PM41.0 °F32.0 °F70 %30.35 in10.0 miCalmClear
7:55 PM41.0 °F32.0 °F70 %30.36 in10.0 miCalmClear
8:15 PM39.2 °F32.0 °F75 %30.36 in10.0 miWest (280°)3.5 mphClear
8:35 PM39.2 °F32.0 °F75 %30.37 in10.0 miCalmClear
8:55 PM39.2 °F32.0 °F75 %30.37 in10.0 miCalmClear
9:15 PM39.2 °F32.0 °F75 %30.37 in10.0 miWest (280°)3.5 mphClear
9:35 PM39.2 °F32.0 °F75 %30.38 in10.0 miSSW (210°)4.6 mphClear
9:55 PM39.2 °F32.0 °F75 %30.38 in9.0 miWest (260°)3.5 mphClear
10:15 PM37.4 °F32.0 °F81 %30.38 in10.0 miCalmClear
10:35 PM41.0 °F32.0 °F70 %30.39 in10.0 miNW (320°)3.5 mphClear
10:55 PM37.4 °F32.0 °F81 %30.39 in7.0 miNW (320°)4.6 mphClear
11:15 PM39.2 °F32.0 °F75 %30.38 in10.0 miNW (310°)4.6 mphClear
11:35 PM39.2 °F32.0 °F75 %30.38 in9.0 miSSW (200°)3.5 mphClear
11:55 PM37.4 °F32.0 °F81 %30.38 in10.0 miCalmClear
Hourly data recorded from KO86, located miles away from Callahan, California







STORIES FROM OUR PARTNERS